Theta_e
308 308 308 307 306 305 310 313 304 316 316 303 305 302 307 304 307 308 307 306 308 306 307 307 308 308 311 314 314 310 315 312 307 309 313 315 315 313 312 306 306 308 307 306
308 308 307 307 306 305 311 312 310 317 314 300 302 306 306 307 307 306 306 305 306 309 307 306 307 309 313 312 313 312 314 309 305 306 311 313 310 312 313 314 314 309 305 307
307 307 307 307 306 306 309 313 304 309 309 309 307 305 304 304 307 306 307 306 307 307 306 310 308 308 310 311 313 323 319 312 309 304 306 312 308 309 311 312 307 308 307 310
306 307 307 307 306 306 311 312 310 311 302 305 306 307 305 303 303 307 309 306 306 305 304 306 306 310 310 310 312 315 316 310 312 311 311 311 310 309 310 309 310 308 310 310
306 307 307 307 306 304 312 307 308 312 308 308 307 302 305 302 305 307 305 305 307 307 305 306 305 309 310 310 313 314 317 311 313 310 311 310 308 309 309 311 311 312 313 312
305 306 307 307 305 305 311 311 313 310 305 305 305 306 305 305 306 309 311 309 308 307 310 313 316 316 317 318 316 314 315 313 311 306 309 309 305 309 310 311 313 313 310 318
305 306 306 307 305 304 310 310 309 305 302 305 304 305 307 306 309 308 310 312 310 316 319 317 316 313 313 315 316 318 316 316 313 307 309 300 311 316 315 313 315 316 316 320
304 306 306 306 306 305 309 311 309 307 302 305 306 306 306 309 310 309 309 312 317 318 314 308 306 306 307 308 311 314 316 313 308 303 304 307 310 314 314 311 311 317 317 321
305 306 305 305 306 305 307 311 311 308 303 303 305 305 307 306 307 308 309 314 318 315 309 307 301 299 303 303 305 312 314 315 309 307 302 299 310 318 323 320 308 318 324 322
305 305 305 305 305 305 305 309 311 307 302 307 305 303 305 308 308 307 310 310 310 314 306 302 302 301 308 302 303 304 305 308 302 303 303 306 315 323 324 308 316 332 332 333
305 304 304 305 305 305 305 307 310 305 303 305 304 306 306 307 307 304 311 308 309 309 304 303 303 303 306 305 309 308 307 304 302 304 301 299 320 320 314 328 336 334 334 334
305 303 303 305 305 304 305 306 312 310 301 303 307 307 309 308 309 308 312 309 312 311 305 306 308 306 308 308 302 313 307 310 307 308 307 327 328 333 335 335 335 336 335 334
304 304 303 304 304 304 304 306 309 308 304 305 305 306 310 310 308 312 305 309 316 315 319 314 311 308 313 306 307 310 315 317 314 314 317 322 327 331 333 335 336 336 335 334
303 303 303 303 304 304 304 306 310 308 305 300 306 313 310 314 313 308 310 312 319 319 315 310 310 307 313 309 312 313 316 319 314 314 321 323 326 331 332 334 334 334 334 334
302 303 304 304 304 304 306 309 311 313 305 302 305 310 312 314 312 309 309 310 312 310 308 307 306 311 311 313 311 310 316 317 312 312 324 326 328 332 333 331 333 332 332 332
303 303 303 304 304 305 307 306 312 316 312 304 302 312 311 314 313 310 309 309 309 308 307 307 309 316 313 306 306 313 319 320 321 320 326 328 330 331 332 332 332 333 333 333
303 303 303 304 303 305 304 303 306 307 312 305 303 303 311 314 314 313 311 313 310 308 307 306 307 309 310 307 304 314 316 319 321 322 325 325 326 327 330 330 331 328 333 333
303 303 304 304 306 304 305 312 306 307 307 307 302 302 306 314 306 306 312 308 309 309 306 308 306 309 309 302 308 312 315 317 319 321 322 324 327 327 328 328 328 327 329 329
303 303 303 307 307 304 306 307 309 312 306 302 304 299 299 312 307 310 309 309 302 309 304 305 306 304 301 306 309 310 314 313 315 319 321 321 322 323 324 325 324 325 326 327
303 302 304 301 306 306 308 309 302 302 304 305 302 310 301 307 308 304 306 307 302 301 303 309 302 302 310 310 312 314 314 315 316 314 315 318 319 320 320 322 324 324 327 326
303 303 302 308 305 308 304 300 299 302 300 304 305 306 302 311 304 307 307 304 305 300 302 302 300 300 307 312 313 315 315 316 317 318 319 320 320 319 319 318 321 325 325 325
301 302 307 311 304 300 296 296 298 299 299 305 303 304 307 307 313 307 307 302 304 296 308 304 298 309 313 314 312 313 316 316 315 317 317 319 320 320 321 320 320 325 327 326
307 303 302 302 301 291 291 292 296 298 304 310 309 305 306 311 312 309 305 299 298 308 300 299 305 308 311 312 310 311 314 315 316 317 318 319 319 320 321 320 321 324 325 328
300 296 287 295 293 296 298 301 302 305 306 306 305 303 304 308 306 305 299 304 303 298 296 298 305 310 309 311 310 309 311 313 315 316 317 318 319 320 321 321 323 321 324 328
298 297 290 293 300 302 302 303 306 308 309 305 305 303 303 300 300 304 303 298 296 298 300 305 307 311 311 309 308 311 310 312 314 316 316 318 320 321 322 323 323 323 327 328
301 300 296 301 299 298 301 302 306 308 309 306 305 300 297 298 298 297 296 295 295 299 306 307 310 310 311 310 306 307 309 311 311 315 316 319 321 322 324 325 326 326 328 326
298 297 302 302 301 300 306 309 310 310 304 299 300 295 295 300 295 295 301 300 304 305 306 308 311 308 307 309 308 311 314 314 314 314 316 320 325 326 325 323 325 326 327 326
Wind_Speed
19 20 22 24 26 32 11 7 5 6 7 9 10 13 20 1 5 9 8 6 9 6 4 8 12 17 9 8 9 16 16 8 11 12 7 5 8 12 15 10 13 10 11 6
19 20 22 23 23 22 9 6 3 5 8 9 11 16 14 3 14 11 10 9 6 3 6 6 8 6 13 4 8 6 11 8 11 13 10 13 11 13 12 10 12 14 14 3
19 21 22 24 24 21 7 6 6 5 8 11 10 13 11 12 8 12 8 7 1 7 7 5 6 7 7 4 10 8 5 11 12 13 3 15 13 15 14 13 12 12 16 16
19 20 21 24 27 26 6 5 3 7 7 11 11 9 7 16 11 13 10 9 11 10 9 10 7 12 10 9 4 6 9 12 13 17 17 9 11 10 14 13 14 18 9 4
20 20 21 24 28 32 6 7 6 1 5 4 8 7 12 11 13 6 10 14 12 10 9 11 9 10 9 10 12 12 11 8 14 16 16 10 13 12 14 10 13 14 20 12
18 20 20 21 25 26 5 6 4 7 4 9 10 10 13 13 11 7 12 9 12 9 5 9 10 11 7 7 7 8 8 10 11 13 17 15 14 13 14 14 14 15 11 6
17 18 19 19 18 19 10 5 7 7 9 7 9 2 3 6 8 9 8 5 8 10 6 5 10 13 12 11 10 9 7 10 11 12 15 14 8 2 7 8 10 9 9 3
15 17 18 19 17 20 11 5 6 6 9 4 4 6 5 9 6 9 4 4 8 7 5 7 10 11 14 17 17 14 11 10 10 13 12 14 11 6 9 9 11 11 10 4
14 15 16 17 16 17 11 4 6 6 8 3 10 6 10 8 11 12 8 4 3 6 7 10 13 11 11 12 15 18 16 11 10 12 13 18 13 5 9 1 9 14 3 5
13 14 15 16 17 15 11 3 6 6 8 5 6 5 7 9 11 7 8 6 8 9 9 10 11 14 15 15 17 16 16 13 15 13 14 12 14 6 3 11 3 9 9 10
13 12 14 15 15 16 12 4 4 6 7 6 4 5 8 4 5 9 6 3 10 7 12 12 10 10 10 16 13 17 14 14 14 14 17 19 8 3 12 8 9 7 8 7
12 11 12 13 14 14 14 5 1 4 6 7 6 9 10 11 11 10 1 7 8 3 7 10 8 11 7 4 10 8 7 11 10 11 9 7 6 10 7 5 5 7 5 7
11 10 11 12 12 12 10 7 6 6 7 8 9 5 8 9 11 11 9 5 7 3 6 8 7 6 7 8 12 11 14 5 7 5 8 6 4 7 7 9 7 5 4 3
9 11 11 12 12 11 10 8 6 6 6 7 8 5 6 1 8 11 10 6 4 6 7 8 8 5 4 11 7 11 8 3 12 11 4 3 7 9 6 7 5 4 3 3
9 10 12 12 12 12 10 8 5 3 7 7 5 5 6 8 5 9 11 8 6 8 7 6 8 6 5 9 10 8 7 2 5 2 9 6 6 5 4 3 6 3 5 6
9 11 12 13 12 10 7 6 5 2 3 6 5 8 6 6 6 7 10 8 7 7 7 5 7 7 3 8 12 10 8 5 9 7 8 6 3 3 4 4 3 3 2 4
10 12 13 14 13 9 5 7 6 8 6 6 6 6 8 4 8 7 7 8 6 7 8 9 7 6 7 11 12 11 5 4 6 5 7 6 2 3 4 3 3 3 1 3
11 13 14 16 11 9 6 1 9 7 5 6 6 5 8 10 6 7 6 7 7 7 8 6 8 6 5 8 14 4 3 6 7 0 6 8 7 2 3 2 3 4 7 7
12 14 14 5 6 2 2 2 4 6 5 7 4 6 4 7 3 4 3 4 5 4 8 10 7 8 8 6 12 11 0 3 9 9 9 9 6 2 1 3 3 6 9 7
12 8 6 2 3 6 4 4 5 4 3 5 7 1 4 6 4 5 5 4 4 2 6 7 7 11 10 9 9 3 5 6 9 10 11 7 9 6 2 4 4 5 6 8
6 6 2 5 5 4 3 3 4 6 6 6 7 4 4 2 2 2 3 4 5 4 5 6 5 7 7 11 6 3 5 8 10 9 8 9 9 4 6 6 4 4 6 4
5 4 3 3 4 4 6 4 4 6 2 3 3 3 6 1 3 3 4 4 3 5 5 3 6 6 10 8 7 6 7 8 8 10 11 10 9 9 9 5 7 3 9 10
5 5 5 3 2 1 6 9 5 2 2 1 2 5 3 3 2 4 5 5 7 2 4 5 5 5 5 6 4 9 10 10 11 10 11 12 13 11 12 8 9 9 6 7
5 6 1 5 6 7 2 1 2 4 1 4 4 2 1 1 5 3 4 3 4 4 7 5 3 3 4 6 10 12 14 14 14 10 12 14 12 13 13 11 10 8 7 11
5 4 4 9 5 4 4 2 4 4 5 3 2 3 4 2 4 4 1 3 4 2 2 3 5 8 6 9 11 13 11 12 13 12 12 13 12 12 11 11 12 11 7 7
4 4 5 1 4 6 7 6 5 1 4 4 3 3 2 4 3 4 6 2 1 1 3 5 6 9 11 11 8 10 11 12 11 12 12 13 14 13 13 8 6 4 7 7
4 5 5 4 4 4 5 3 1 4 2 1 4 4 3 4 2 4 5 4 3 3 5 6 8 10 11 12 11 12 11 9 9 9 9 5 3 6 7 8 6 7 7 10
Wind_Direction
355 350 349 347 347 339 290 285 235 130 198 203 220 225 238 311 215 217 242 294 292 203 236 245 258 226 196 206 225 202 222 222 251 220 223 257 293 236 220 247 229 260 277 285
352 351 350 347 349 357 313 274 3 156 233 223 217 225 243 148 234 216 216 229 251 245 219 263 247 245 84 154 241 223 217 229 239 243 220 204 242 243 250 271 284 277 278 61
354 352 348 346 346 351 297 273 205 155 208 276 295 223 220 205 250 262 240 250 267 212 226 209 213 240 134 202 251 8 346 246 243 255 1 290 192 238 236 229 248 244 244 262
355 352 352 349 343 342 285 247 1 3 193 214 229 270 226 220 187 242 207 218 230 219 230 211 223 235 158 206 114 219 241 243 256 262 276 262 264 224 212 235 244 258 262 144
354 353 356 353 346 337 253 313 332 238 309 306 248 162 222 251 229 196 215 240 216 225 239 237 228 209 229 230 175 226 232 241 260 270 263 245 260 242 261 251 240 252 263 308
356 355 358 360 358 340 338 1 252 274 119 205 239 192 226 223 251 173 294 212 247 224 247 325 24 330 336 344 313 253 227 238 247 249 241 234 232 245 251 237 251 253 266 16
354 354 358 1 4 359 311 20 288 270 262 242 219 266 200 235 193 294 188 273 250 43 326 288 265 260 249 245 239 246 270 251 266 262 258 240 243 271 316 322 309 260 253 221
351 355 0 358 3 354 317 1 319 306 280 293 168 261 234 237 118 245 230 194 28 329 295 255 238 228 235 233 230 220 220 261 247 255 254 274 255 187 233 246 265 270 248 278
350 355 360 357 2 356 315 51 311 288 301 59 356 256 232 242 210 207 220 141 253 278 264 219 233 228 211 214 217 219 210 214 268 258 250 254 272 19 58 314 266 276 71 273
347 352 355 354 357 354 326 343 348 278 285 54 323 268 310 239 291 271 168 180 231 224 244 248 233 235 249 229 207 187 211 212 227 235 258 255 269 79 184 223 38 36 14 26
341 345 348 351 354 354 334 354 11 315 305 314 335 298 287 286 274 265 80 183 218 236 226 241 235 251 235 237 239 195 205 215 226 236 247 245 172 221 259 48 82 45 58 51
331 339 340 346 350 351 341 281 77 322 266 340 327 290 293 293 315 322 162 315 290 239 249 233 263 249 229 286 232 222 256 215 240 239 236 77 29 74 76 39 64 53 41 73
326 334 336 338 343 348 336 313 316 276 257 247 221 202 198 237 242 279 289 201 2 274 344 319 284 269 354 244 232 266 210 213 254 298 167 122 98 110 74 45 47 61 46 59
314 320 324 329 332 332 322 297 338 279 290 278 116 143 207 175 237 224 245 321 297 279 265 262 276 273 264 273 355 295 86 348 238 252 136 128 104 50 40 87 79 90 118 100
303 307 314 319 320 320 289 267 263 277 307 329 12 156 144 170 176 211 214 237 273 267 228 237 246 280 1 271 280 266 358 15 297 353 40 326 72 48 27 48 79 80 105 118
300 303 306 308 310 316 281 203 162 231 303 274 237 105 163 163 178 186 194 215 234 258 272 265 257 110 280 263 237 226 85 351 11 18 349 342 45 52 22 28 51 100 114 109
295 300 302 300 296 280 295 357 357 334 300 250 249 177 156 155 169 184 197 206 233 242 238 254 274 201 185 260 268 96 341 14 7 348 318 256 190 76 50 67 83 186 112 120
293 300 303 302 274 252 257 93 218 288 260 266 270 143 175 185 207 180 194 199 216 200 255 239 235 171 224 250 257 228 165 357 297 184 322 295 329 216 119 316 147 167 143 118
295 300 301 269 229 232 94 110 194 222 284 298 251 339 117 178 131 265 179 246 217 249 217 235 238 232 229 223 236 268 60 325 317 303 291 286 226 320 188 220 250 256 131 141
295 271 210 210 55 135 171 194 200 206 223 240 260 355 192 222 251 195 153 218 216 226 252 264 227 245 249 230 191 250 334 297 292 282 264 314 319 197 180 248 205 260 156 162
212 218 135 120 133 215 218 234 229 203 218 202 249 276 30 85 254 250 235 178 245 236 187 225 198 245 238 195 129 172 269 273 272 283 294 287 288 262 242 276 255 208 137 168
357 299 242 227 206 206 246 230 194 229 215 247 243 177 237 142 289 217 251 256 256 260 149 253 251 55 42 54 35 349 282 270 277 277 274 270 269 272 274 259 280 68 172 166
222 226 217 198 195 217 235 189 201 149 25 304 248 211 231 192 255 238 240 227 239 15 191 220 57 85 50 3 341 311 285 283 280 275 267 264 262 246 253 244 251 199 193 173
234 171 316 223 199 230 190 275 202 157 211 245 227 247 11 175 212 252 235 290 321 251 256 65 94 81 15 352 329 326 316 308 299 295 295 284 270 267 240 242 239 255 179 160
239 210 227 211 251 91 65 158 180 172 209 290 15 326 255 284 274 233 288 244 247 315 21 351 45 347 357 333 326 307 290 287 288 297 290 275 278 269 251 237 244 226 168 172
255 238 266 300 193 218 176 209 143 202 239 286 233 180 272 240 237 231 242 256 9 128 297 317 328 338 334 317 288 282 277 274 272 274 276 279 263 244 238 205 223 185 151 177
232 244 214 222 231 284 66 86 118 268 38 223 275 204 206 300 278 259 321 21 351 334 332 317 1 336 316 303 284 268 258 269 284 273 263 272 30 84 108 115 117 100 114 114